Location: Florence
(33.9745°N, 118.2481°W)
Time: 20:43:17
(UTC+00:00)

Meteor 1-5 Rocket - Pass Details

Date: 23 March 2023
Orbit: 788 x 915 km, 81.2° (Epoch: 06 June)

Event Time Altitude Azimuth Distance (km) Brightness Sun altitude
Rises 12:05:33 0° 353° (N) 3,426 7.5 -22.7°
Reaches altitude 10° 12:07:57 10° 355° (N) 2,505 6.8 -22.2°
Maximum altitude 12:13:40 79° 82° (E) 903 4.4 -21.1°
Drops below altitude 10° 12:19:32 10° 169° (SSE) 2,566 6.7 -19.9°
Sets 12:22:01 0° 170° (S) 3,515 7.4 -19.4°
